Location: G�migny
(47.9646°N, 1.6950°E)
Time: 01:57:00
(UTC+00:00)

Cosmos 1726 - Pass Details

Date: 23 October 2019
Orbit: 483 x 500 km, 82.5° (Epoch: 14 November)

Event Time Altitude Azimuth Distance (km) Brightness Sun altitude
Rises 17:45:41 0° 197° (SSW) 2,542 6.0 -9.9°
Reaches altitude 10° 17:47:48 10° 201° (SSW) 1,665 5.1 -10.2°
Maximum altitude 17:51:24 58° 281° (WNW) 569 2.7 -10.8°
Drops below altitude 10° 17:55:01 10° 2° (N) 1,676 4.7 -11.4°
Sets 17:57:09 0° 7° (N) 2,562 5.6 -11.8°
